Wind_Speed
5 6 5 5 5 5 5 4 4 3 3 3 4 5 5 5 5 5 4 4 4 5 5 6 6 6 5 5 5 4 4 3 3 3 2 2 2 2 2 3 2 2 2
5 6 6 6 6 5 5 5 5 4 3 3 4 4 4 4 4 4 4 4 3 4 4 5 5 5 5 5 5 4 3 3 3 2 2 2 2 2 2 2 2 1 1
5 6 6 6 6 6 6 6 6 5 5 4 4 3 3 3 3 3 3 3 3 3 3 4 4 5 5 5 5 4 3 3 3 2 1 1 2 2 1 1 1 1 1
6 6 6 6 6 6 6 6 6 5 5 4 4 3 3 3 3 3 3 2 3 2 3 4 4 4 5 5 5 4 3 2 2 2 1 1 1 2 1 1 1 1 1
7 6 6 7 6 6 6 6 6 6 6 5 4 3 2 2 2 2 2 2 2 3 3 3 4 4 5 5 4 4 3 3 2 2 1 1 1 1 2 2 1 1 2
7 7 6 7 6 6 5 5 5 6 6 5 4 3 2 1 1 1 1 1 1 1 1 2 3 4 5 4 4 4 3 3 3 2 1 1 2 1 1 2 2 2 2
6 6 6 6 6 5 5 5 5 5 5 5 4 4 3 2 2 1 1 1 1 1 1 2 3 4 4 5 5 4 4 4 3 3 2 2 2 2 3 3 3 3 3
7 6 6 6 6 5 5 5 5 5 5 4 4 4 2 2 2 2 1 2 1 0 2 2 3 3 3 4 5 5 5 4 4 3 2 2 2 2 2 3 4 4 4
8 7 6 5 5 5 5 5 5 4 4 4 4 4 3 3 3 2 2 2 2 1 0 1 2 3 3 4 4 5 5 4 4 4 3 3 3 3 3 2 3 4 4
8 7 6 6 5 5 5 5 5 5 5 4 4 4 4 3 3 3 3 3 2 2 1 1 2 3 3 3 4 4 5 5 5 5 5 5 4 4 3 3 3 2 3
8 7 6 7 7 6 6 5 5 5 5 5 5 5 5 4 4 4 4 3 3 3 3 3 2 2 3 3 5 5 6 6 6 5 5 6 6 6 5 4 3 3 4
8 8 7 7 7 7 7 6 6 6 5 5 5 5 5 5 5 5 4 4 3 3 3 4 3 3 4 5 5 6 7 7 7 6 6 6 6 6 5 5 4 4 4
8 8 7 7 7 8 7 7 6 6 6 6 6 5 5 5 5 5 5 5 4 4 4 4 4 5 5 5 6 7 8 8 8 8 7 7 6 6 6 6 6 5 5
8 8 8 8 8 7 7 7 7 6 7 7 7 6 6 6 6 6 6 5 5 5 5 5 5 6 6 6 6 7 8 8 8 8 8 7 7 8 7 7 7 6 7
9 8 8 9 9 8 8 8 8 7 7 6 7 7 8 7 8 8 5 5 5 5 5 5 6 6 7 6 6 6 7 8 8 8 8 8 9 9 9 8 8 8 9
9 9 9 9 9 9 9 9 9 8 8 8 8 8 9 9 9 8 7 6 6 6 6 6 7 7 7 7 7 7 7 8 8 9 9 9 9 10 10 10 10 10 10
9 9 9 9 9 9 9 9 8 8 8 8 9 10 10 10 10 9 8 7 6 6 6 6 7 6 7 7 6 6 8 8 9 9 9 10 10 10 11 11 11 11 11
9 9 9 10 10 10 10 9 9 9 9 10 10 10 11 11 10 9 8 8 7 7 6 6 6 6 7 7 7 7 7 8 8 9 11 11 11 12 12 12 12 12 13
9 9 9 10 11 10 10 10 10 10 10 10 11 11 11 12 11 11 9 9 8 8 7 7 7 8 8 8 8 7 7 8 9 9 10 11 11 12 12 12 13 13 13
9 10 10 10 11 12 11 11 12 12 11 11 11 11 11 12 12 12 10 10 10 9 9 9 8 9 9 8 8 8 8 9 9 9 10 11 11 12 13 12 12 13 13
10 10 11 11 11 12 12 13 13 13 12 12 12 12 12 12 11 11 11 10 10 10 10 10 9 9 9 9 8 8 8 8 8 9 10 10 10 11 11 12 12 13 14
11 11 12 12 12 12 13 13 13 13 13 13 13 13 13 12 12 12 11 11 12 12 12 12 11 10 9 9 9 9 10 9 10 10 11 11 11 11 11 12 13 13 13
11 11 12 13 13 13 13 14 13 13 14 14 13 14 14 13 13 13 12 13 13 13 13 13 13 12 12 12 12 12 11 11 11 11 12 12 12 12 13 13 14 15 15
12 11 12 13 13 13 14 14 14 14 15 15 15 14 14 15 15 14 14 14 14 14 14 14 14 14 13 13 13 13 13 13 13 12 12 13 13 14 14 15 15 15 16
12 12 12 13 14 14 14 15 15 15 16 16 16 15 15 16 16 16 15 15 15 15 15 15 15 15 14 14 13 13 13 14 15 15 14 15 15 15 16 17 17 17 18
13 13 13 14 14 14 15 15 15 16 17 17 16 16 17 17 18 18 17 17 16 16 17 17 17 16 15 15 15 15 15 15 16 16 16 16 16 16 17 17 17 18 19
Wind_Direction
66 67 68 70 71 70 69 74 96 114 118 128 148 152 151 155 154 158 167 166 175 184 185 188 189 191 189 190 187 178 169 151 154 161 168 157 138 131 121 107 103 79 71
67 68 67 69 70 70 70 78 90 95 102 117 139 153 148 152 158 158 163 162 171 176 188 193 189 191 185 179 184 182 171 162 168 161 152 145 140 122 120 126 105 103 98
70 69 68 71 69 71 70 75 83 89 83 88 112 139 151 147 163 162 154 158 148 154 170 179 187 197 195 187 185 183 181 173 172 158 161 189 177 163 164 168 116 115 112
66 67 69 69 69 71 69 67 70 77 79 78 91 109 128 131 117 125 126 136 139 140 158 168 181 190 186 181 188 194 193 189 186 186 198 201 196 193 223 228 195 181 151
65 66 69 66 67 70 67 64 59 60 67 74 73 80 95 112 110 110 119 117 128 136 152 166 179 182 177 175 184 191 196 199 188 187 189 220 231 224 224 225 225 169 166
65 67 68 63 60 60 62 61 56 54 55 64 67 73 80 86 79 106 119 123 152 150 147 174 182 189 186 188 194 195 192 201 220 217 203 220 246 247 229 230 229 226 197
63 63 65 60 54 53 54 54 51 49 45 47 53 61 67 52 47 31 10 69 122 203 209 186 176 187 191 194 200 205 206 211 222 224 213 210 232 250 253 249 243 237 224
59 57 60 58 54 57 57 51 46 45 45 40 33 34 36 19 21 26 14 14 11 136 174 178 186 188 209 215 218 217 217 225 232 233 235 245 250 259 262 254 252 245 240
43 46 49 53 51 49 47 42 38 37 34 33 29 21 11 0 357 353 347 354 352 332 197 209 212 208 214 224 230 229 224 227 233 241 248 252 255 258 252 238 249 249 251
41 43 45 45 48 46 42 36 32 25 21 21 21 17 8 3 356 342 337 339 343 328 324 264 250 237 242 233 233 236 230 235 240 245 245 250 253 257 257 245 249 252 251
38 42 49 42 37 36 32 29 27 18 12 13 11 12 10 2 350 342 340 335 331 330 326 320 299 260 256 251 248 243 241 247 250 255 255 258 257 254 252 247 247 257 261
41 42 42 40 35 34 30 27 22 13 7 3 3 8 10 2 352 345 336 332 329 330 325 325 318 294 263 259 255 245 247 255 262 262 258 258 257 252 250 248 248 256 257
40 37 35 29 27 29 29 26 20 12 8 360 354 356 356 353 350 343 333 329 322 323 320 316 310 299 278 265 257 247 250 255 259 260 268 262 254 258 258 253 250 253 257
31 30 29 25 22 19 20 22 19 12 8 4 354 346 345 340 343 334 323 318 313 311 316 310 303 299 287 275 262 251 253 257 259 263 265 260 257 255 255 255 255 259 263
21 23 21 16 16 16 16 16 17 10 4 360 352 352 345 336 336 325 311 315 311 303 304 306 308 302 288 277 271 262 259 259 262 264 264 258 252 251 253 257 259 259 264
20 20 15 9 8 10 10 11 11 3 358 353 349 345 342 337 333 331 330 321 319 312 308 306 307 304 290 288 281 267 263 264 265 263 262 262 260 255 255 259 262 262 264
13 11 8 3 359 0 3 4 3 358 351 348 344 346 342 338 336 329 329 327 323 316 309 309 303 303 306 302 288 275 271 268 264 265 265 267 264 261 259 262 264 267 266
6 6 3 0 357 354 356 357 355 351 348 345 341 342 342 336 331 330 327 327 326 323 317 308 304 311 310 304 293 283 278 269 269 270 269 270 268 266 266 266 266 269 267
357 356 355 354 352 350 351 353 349 343 340 338 338 338 337 337 337 334 330 328 331 328 322 315 313 312 307 301 297 288 281 274 273 276 277 274 270 268 269 268 267 270 268
350 348 345 345 344 345 343 343 342 342 340 338 338 336 336 338 339 337 331 324 324 326 326 322 315 314 308 301 294 289 288 290 282 282 282 280 275 273 273 269 268 272 274
340 340 341 340 337 335 336 337 338 338 337 335 334 335 333 333 336 334 336 333 330 327 326 326 322 319 314 310 302 296 297 294 288 286 286 284 280 275 274 274 272 272 271
333 331 333 336 334 332 331 331 332 333 333 330 328 331 331 327 330 331 332 332 328 326 329 326 327 324 320 313 305 302 299 295 292 292 291 289 286 285 280 278 276 275 276
329 326 327 329 330 329 330 328 329 331 330 328 327 323 325 326 325 323 321 323 323 325 325 325 326 324 319 316 309 306 304 301 300 300 298 297 292 289 287 283 284 280 278
322 323 324 326 326 327 327 327 329 330 329 324 324 319 320 322 322 322 319 320 319 318 318 319 320 321 319 317 312 308 306 304 300 300 299 297 297 295 293 294 293 291 286
316 317 318 320 320 321 322 322 323 325 326 324 324 323 322 319 318 318 318 318 316 315 315 317 315 315 316 314 311 308 305 301 299 297 296 295 294 294 294 293 292 290 288
310 311 312 316 317 317 318 318 319 320 323 323 321 319 319 318 316 316 315 313 313 312 311 311 312 312 311 310 308 305 303 300 297 293 292 291 292 291 290 291 290 289 288
Height
5883 5883 5882 5882 5882 5882 5882 5881 5881 5881 5881 5881 5881 5881 5882 5882 5883 5884 5884 5885 5885 5886 5886 5887 5887 5888 5889 5889 5890 5891 5892 5893 5893 5894 5894 5894 5895 5895 5896 5896 5896 5896 5897
5884 5884 5884 5884 5884 5883 5883 5883 5883 5882 5882 5882 5882 5882 5883 5883 5884 5884 5885 5885 5886 5886 5887 5887 5888 5889 5889 5890 5891 5892 5892 5893 5894 5894 5895 5895 5895 5896 5896 5896 5897 5897 5897
5886 5885 5885 5885 5885 5885 5885 5884 5884 5884 5883 5883 5883 5884 5884 5884 5884 5885 5885 5886 5886 5887 5887 5887 5888 5889 5890 5890 5891 5892 5892 5893 5894 5894 5895 5895 5895 5896 5896 5897 5897 5897 5898
5887 5887 5887 5887 5887 5887 5887 5886 5885 5885 5885 5885 5885 5885 5885 5885 5886 5886 5886 5886 5887 5887 5887 5888 5888 5888 5890 5890 5891 5892 5893 5893 5894 5894 5895 5895 5896 5896 5896 5897 5897 5897 5898
5889 5888 5888 5888 5888 5888 5888 5888 5887 5887 5886 5886 5886 5886 5885 5885 5886 5886 5887 5887 5887 5887 5887 5888 5888 5889 5889 5890 5891 5892 5892 5893 5893 5894 5895 5895 5896 5896 5896 5897 5897 5897 5898
5891 5890 5890 5890 5890 5889 5889 5889 5889 5888 5888 5887 5887 5887 5886 5886 5887 5887 5887 5887 5887 5887 5887 5888 5888 5889 5889 5890 5891 5892 5892 5893 5892 5893 5894 5895 5895 5896 5896 5896 5897 5897 5897
5892 5892 5891 5891 5891 5891 5890 5890 5890 5889 5889 5888 5888 5888 5887 5887 5887 5887 5887 5887 5887 5887 5887 5887 5887 5889 5889 5890 5891 5891 5892 5892 5893 5893 5894 5894 5895 5895 5896 5896 5897 5897 5897
5894 5893 5893 5892 5892 5892 5892 5892 5891 5891 5890 5890 5889 5889 5888 5888 5888 5888 5888 5888 5887 5887 5887 5887 5888 5888 5889 5889 5890 5890 5891 5892 5892 5893 5894 5894 5894 5895 5895 5896 5896 5897 5897
5895 5895 5894 5894 5893 5893 5893 5893 5892 5892 5891 5891 5890 5889 5889 5889 5889 5888 5888 5888 5888 5888 5887 5887 5888 5888 5888 5889 5889 5890 5890 5891 5892 5892 5893 5893 5894 5894 5895 5895 5896 5896 5897
5896 5896 5895 5895 5895 5894 5894 5894 5893 5892 5892 5891 5891 5890 5890 5889 5889 5888 5888 5888 5888 5888 5887 5887 5888 5888 5888 5888 5889 5889 5890 5891 5891 5892 5892 5892 5893 5893 5894 5895 5895 5896 5896
5898 5897 5897 5896 5896 5896 5895 5894 5894 5893 5892 5892 5891 5891 5890 5889 5889 5888 5888 5888 5888 5888 5887 5887 5887 5887 5888 5888 5888 5888 5889 5890 5891 5891 5892 5892 5892 5893 5893 5894 5894 5895 5895
5899 5899 5898 5898 5897 5897 5896 5895 5895 5894 5893 5892 5892 5891 5891 5890 5889 5889 5888 5888 5887 5887 5887 5887 5887 5887 5887 5887 5887 5888 5888 5889 5890 5890 5890 5891 5891 5892 5893 5893 5894 5894 5895
5901 5901 5900 5899 5899 5898 5897 5896 5896 5895 5894 5893 5892 5892 5891 5890 5889 5889 5888 5887 5887 5887 5886 5886 5886 5886 5886 5886 5886 5887 5887 5887 5888 5889 5889 5890 5890 5891 5892 5892 5893 5893 5894
5903 5902 5901 5901 5900 5899 5898 5897 5896 5895 5894 5893 5892 5890 5889 5890 5889 5888 5888 5887 5887 5886 5886 5886 5885 5885 5885 5885 5885 5885 5885 5885 5886 5887 5888 5888 5889 5890 5891 5891 5891 5892 5892
5904 5903 5903 5902 5901 5900 5899 5898 5896 5896 5895 5894 5892 5890 5889 5888 5888 5887 5887 5886 5885 5885 5885 5884 5884 5884 5884 5884 5884 5884 5884 5885 5885 5885 5886 5886 5887 5888 5889 5890 5890 5890 5891
5906 5905 5904 5903 5902 5901 5900 5899 5897 5896 5895 5894 5892 5891 5890 5888 5888 5887 5885 5885 5884 5884 5884 5884 5883 5883 5882 5882 5882 5882 5883 5883 5883 5884 5884 5885 5885 5886 5887 5888 5888 5888 5889
5907 5906 5905 5904 5903 5902 5901 5900 5898 5897 5895 5894 5893 5891 5890 5889 5888 5887 5886 5885 5884 5883 5883 5882 5883 5881 5881 5881 5880 5880 5881 5881 5881 5882 5882 5883 5883 5883 5884 5885 5885 5886 5886
5908 5907 5906 5905 5904 5902 5901 5900 5899 5897 5896 5894 5893 5892 5890 5889 5888 5887 5886 5885 5883 5882 5882 5882 5881 5881 5880 5879 5879 5879 5879 5879 5879 5880 5880 5880 5881 5881 5882 5882 5883 5883 5883
5908 5907 5906 5905 5904 5903 5902 5900 5899 5898 5896 5894 5893 5892 5890 5889 5887 5886 5885 5884 5883 5882 5882 5881 5880 5880 5879 5878 5877 5877 5877 5877 5877 5877 5877 5877 5878 5879 5879 5880 5880 5880 5880
5909 5908 5907 5905 5904 5903 5902 5900 5899 5897 5896 5894 5893 5891 5890 5889 5887 5886 5885 5884 5883 5882 5881 5880 5879 5879 5878 5877 5876 5876 5875 5875 5874 5875 5875 5875 5876 5876 5876 5877 5877 5877 5878
5909 5908 5906 5905 5904 5903 5901 5900 5898 5897 5895 5894 5892 5891 5890 5889 5887 5886 5885 5884 5883 5882 5881 5879 5878 5877 5877 5875 5875 5874 5874 5874 5873 5873 5873 5873 5873 5873 5873 5874 5874 5874 5874
5908 5907 5906 5904 5903 5902 5901 5899 5898 5896 5894 5893 5892 5890 5889 5888 5887 5886 5885 5884 5882 5881 5880 5878 5877 5876 5875 5874 5874 5873 5873 5873 5872 5872 5871 5871 5871 5870 5870 5871 5871 5871 5871
5907 5906 5905 5904 5902 5901 5900 5898 5897 5895 5894 5892 5891 5889 5888 5887 5886 5885 5884 5883 5881 5880 5879 5877 5876 5875 5874 5873 5872 5871 5871 5871 5870 5870 5869 5868 5868 5868 5868 5867 5867 5867 5867
5906 5905 5904 5903 5902 5900 5899 5897 5896 5895 5893 5891 5890 5888 5887 5886 5884 5883 5882 5881 5880 5878 5877 5876 5874 5873 5872 5871 5870 5869 5868 5868 5868 5868 5867 5866 5865 5865 5864 5864 5864 5863 5864
5905 5904 5903 5902 5900 5899 5898 5896 5895 5893 5892 5890 5888 5887 5885 5884 5883 5881 5880 5879 5877 5876 5875 5873 5871 5870 5869 5868 5868 5867 5866 5865 5864 5864 5864 5863 5863 5862 5861 5861 5860 5860 5860
5903 5902 5901 5900 5899 5897 5896 5895 5893 5892 5890 5888 5887 5885 5884 5882 5880 5879 5878 5876 5875 5873 5872 5870 5869 5868 5866 5865 5864 5864 5863 5862 5861 5861 5860 5860 5859 5859 5858 5857 5856 5856 5855